Location: Warszawa
(52.2500°N, 21.0000°E)
Time: 02:31:15
(UTC+01:00)

N. Korean satellite - Visible Passes

Search period start: 10 December 2022 00:00
Search period end: 20 December 2022 00:00
Orbit: 420 x 452 km, 97.3° (Epoch: 09 December)

Date Brightness Start Highest point End Pass type
(mag) Time Alt. Az. Time Alt. Az. Time Alt. Az.
10 Dec 6.2 05:11:09 10° NNE 05:14:34 87° WNW 05:17:55 10° SSW visible
10 Dec 10.0 17:20:53 10° WSW 17:21:46 11° W 17:22:41 10° WNW visible
11 Dec 8.2 04:32:14 10° NNE 04:35:18 31° E 04:38:19 10° SSE visible
11 Dec 7.6 06:04:58 10° NNW 06:07:40 22° WNW 06:10:19 10° WSW visible
11 Dec 8.8 16:39:17 10° SSW 16:42:15 27° W 16:45:14 10° NW visible
12 Dec 9.7 03:54:19 10° ENE 03:55:47 12° E 03:57:14 10° ESE visible
12 Dec 6.3 05:25:19 10° N 05:28:39 58° WNW 05:31:56 10° SSW visible
12 Dec 6.6 15:59:29 10° S 16:02:54 79° WSW 16:06:20 10° NNW visible
13 Dec 7.4 04:46:07 10° NNE 04:49:23 45° E 04:52:35 10° S visible
13 Dec 7.9 06:19:21 10° NNW 06:21:34 17° WNW 06:23:45 10° WSW visible
13 Dec 9.4 16:53:46 10° SW 16:56:19 20° W 16:58:54 10° NW visible
14 Dec 9.4 04:07:34 10° NE 04:11:18 14° ESE 04:12:07 10° SE visible
14 Dec 7.2 05:39:21 10° N 05:44:43 17° SW 05:45:40 10° SW visible
14 Dec 7.4 16:13:28 10° S 16:16:49 53° W 16:20:10 10° NNW visible
15 Dec 8.2 04:59:53 10° NNE 05:05:43 17° S 05:06:33 10° S visible
15 Dec 8.4 06:33:47 10° NNW 06:39:07 - WSW 06:34:36 12° NW visible
15 Dec 9.7 17:08:19 10° SW 17:10:14 14° W 17:12:10 10° NW visible
16 Dec 9.5 04:20:57 10° NE 04:26:29 10° SSE 04:21:04 11° NE visible
16 Dec 8.2 05:53:16 10° N 05:59:52 - SW 05:54:23 17° NNW visible
16 Dec 8.2 16:27:23 10° SSW 16:30:34 36° W 16:33:46 10° NNW visible
17 Dec 8.7 05:13:33 10° NNE 05:20:29 - SSW 05:14:13 15° NNE visible
17 Dec 10.1 17:23:32 10° W 17:24:01 10° W 17:24:29 10° W visible
18 Dec9.504:41:00SSE04:41:00SSE04:34:05NNEvisible
18 Dec 8.6 06:07:05 10° NNW 06:14:22 - SW 06:07:24 12° NNW visible
18 Dec 8.9 16:41:16 10° SSW 16:44:10 26° W 16:47:06 10° NW visible
19 Dec10.304:01:26SE04:01:26SE03:53:56NEvisible
19 Dec 8.9 05:27:06 10° N 05:34:48 - SSW 05:27:16 11° N visible
